Other Public Products
Issued by NWS Charleston, SC

Current Version | Previous Version | Graphics & Text | Print | Product List | Glossary On
Versions: 1 2 3 4 5 6 7 8 9 10 11 12 13 14 15 16 17 18 19 20 21 22 23 24 25 26 27 28 29 30 31 32 33 34 35 36 37 38 39 40 41 42 43 44 45 46 47 48 49 50
211 FPUS82 KCHS 232127 OPUCHS TEST...KCHS/KSAV Gateway Observations...TEST National Weather Service Charleston SC 500 PM EDT MON APR 23 2018 NOTE: "fair" indicates few or no clouds below 12,000 feet with no significant weather and/or obstructions to visibility. SCZ050-WAZ558-NCZ071-TXZ119-213-PAZ071-DCZ001-FLZ074-172-MI076- NYZ176-178-MAZ016-IL014-TNZ027-NJZ106-GAZ044-MD014-232200- ...Gateway Observations for Charleston International... CITY SKY/WX TMP DP RH WIND PRES REMARKS Chas Airport LGT RAIN 67 65 93 E22G32 30.00F FOG Seattle MOSUNNY 68 37 32 N16 30.28F Charlotte HVY RAIN 58 57 97 NE10G23 30.09F VSB 1 Dallas DFW MOSUNNY 74 51 44 NW9G22 30.01F Dallas Love MOSUNNY 75 53 46 N12 30.02F Philladelphia FAIR 67 29 24 S14G20 30.39F Wash National PTSUNNY 67 42 40 S15 30.34F Baltimore PTSUNNY 67 44 43 SE13G21 30.35F Miami TSTM 73 70 90 SE8 29.97F Detroit PTSUNNY 72 41 32 SE10 30.15F Newark FAIR 58 34 40 E9 30.43S Laguardia FAIR 62 28 27 S14 30.43S J F K FAIR 54 36 50 SE15 30.46S Boston Logan MOSUNNY 54 28 36 E15 30.43F Ft. Lauderdale RAIN 78 75 90 S9 29.96F Chicago O`Hare PTSUNNY 62 30 29 NE16 30.10F Chicago Midway CLOUDY 61 31 32 NE15 30.10F Houston Bush FAIR 79 51 37 NW17 29.99F Houston Hobby FAIR 79 50 36 NW15G23 29.99F Nashville CLOUDY 63 58 83 E17G24 29.89S Atlanta TSTM 65 65 100 NE17G32 29.87F FOG $$ GAZ044-118-TXZ119-213-NCZ071-DCZ001-MDZ014-506-PAZ021-071-NJZ106- NYZ176-178-MAZ106-OHZ011-021-055-MIZ076-KYZ091-ILZ014-INZ047- MNZ060-ONZ431-232200- ...Gateway Observations for Savannah International... CITY SKY/WX TMP DP RH WIND PRES REMARKS Savannah Arpt PTSUNNY 71 70 96 SE13 29.93F Atlanta TSTM 65 65 100 NE17G32 29.87F FOG Charlotte HVY RAIN 58 57 97 NE10G23 30.09F VSB 1 Dallas DFW MOSUNNY 74 51 44 NW9G22 30.01F Houston Bush FAIR 79 51 37 NW17 29.99F Wash National PTSUNNY 67 42 40 S15 30.34F Wash Dulles PTSUNNY 65 43 44 SE13G21 30.33F Baltimore PTSUNNY 67 44 43 SE13G21 30.35F Philadelphia FAIR 67 29 24 S14G20 30.39F Newark FAIR 58 34 40 E9 30.43S Laguardia FAIR 62 28 27 S14 30.43S J F K FAIR 54 36 50 SE15 30.46S Boston MOSUNNY 54 28 36 E15 30.43F Pittsburg CLOUDY 69 34 27 SE14G24 30.19S Akron PTSUNNY 73 41 31 S10 30.16F Cleveland CLOUDY 73 39 29 S14 30.16F Cincinnati LGT RAIN 56 52 86 E20G30 30.07F FOG Columbus LGT RAIN 54 50 84 E7 30.19S Detroit PTSUNNY 72 41 32 SE10 30.15F Chicago O`Hare PTSUNNY 62 30 29 NE16 30.10F Minneapolis FAIR 70 36 28 NW9 30.14F Indianapolis CLOUDY 57 54 89 E12 30.05F Toronto Canada MOSUNNY 63 21 20 E13 30.25F $$

USA.gov is the U.S. government's official web portal to all federal, state and local government web resources and services.